Wind_Speed
23 23 23 23 23 22 22 22 21 21 21 21 22 22 22 22 23 23 22 21 18 16 17 18 17 16 15 14 16 16 15 16 15 19 21 14 11 16 16 16 19 20 22 23 24 28 26 22 21 20 19 19 14 12 14 12 7 4 2 2 3 3 3 3 3 3 3 4 4 10 14 9 5 7 10 10 10 16 15 8 13 8 7 19 22 30 38 38
23 23 23 23 23 23 23 23 22 22 21 21 21 21 22 22 23 23 23 22 19 16 16 16 17 16 16 15 15 15 16 16 17 22 16 5 6 12 19 20 21 24 25 26 27 30 30 27 23 22 22 18 11 11 11 11 10 6 2 1 4 3 4 4 3 3 1 5 7 11 14 11 8 12 14 8 7 13 9 8 14 14 16 19 25 35 38 40
22 22 22 22 22 22 22 23 22 22 22 21 21 21 22 22 22 22 22 22 20 18 16 15 17 17 16 15 15 15 15 16 19 20 11 8 13 13 20 24 25 28 26 25 26 29 31 29 26 24 23 15 10 13 10 9 8 7 4 2 6 5 6 8 8 8 3 7 10 10 13 10 11 16 15 8 7 9 8 11 15 20 24 26 31 37 38 41
22 22 22 22 22 21 21 21 22 22 21 21 21 21 21 21 21 20 21 22 22 19 17 16 16 16 15 14 14 13 13 14 13 8 2 4 12 15 22 25 28 30 26 23 24 27 28 28 26 25 22 11 11 13 9 11 8 6 6 5 5 3 5 11 10 8 5 7 12 11 11 8 12 18 15 13 9 4 11 20 21 25 31 33 37 39 41 41
23 22 22 22 22 21 21 21 21 21 21 21 20 20 21 21 20 19 20 22 23 21 18 17 15 15 14 13 13 11 9 6 2 2 3 3 5 13 23 27 29 31 28 25 25 28 28 28 27 23 17 7 10 10 9 17 11 4 8 10 8 2 2 9 9 7 4 7 11 11 10 9 14 15 17 18 11 7 17 25 25 29 33 36 41 41 42 41
24 23 22 22 22 21 21 21 21 21 21 20 19 19 20 20 20 19 19 22 24 22 19 17 15 14 13 13 13 10 6 2 2 2 2 2 3 9 22 29 29 32 30 26 28 30 28 30 28 20 12 5 10 9 7 20 15 5 8 11 14 10 7 10 10 10 6 6 9 10 10 13 13 9 17 22 14 7 15 24 25 28 31 35 42 43 42 43
24 24 23 23 22 22 21 21 21 21 21 20 19 19 20 20 19 19 19 21 23 20 16 15 14 13 12 13 12 10 10 9 6 8 9 6 3 5 21 32 30 32 31 28 31 31 29 32 27 20 12 4 9 9 6 16 17 9 6 9 13 14 16 18 15 16 12 5 9 10 10 13 13 8 14 22 15 5 9 22 25 26 31 36 42 43 43 43
26 25 24 24 23 23 22 22 22 22 21 20 19 19 20 20 20 20 19 21 22 15 12 14 14 15 13 12 11 10 12 11 7 9 10 10 8 5 19 34 33 34 34 31 33 33 32 33 28 20 11 4 8 11 9 10 12 12 10 8 9 12 17 19 18 19 18 14 11 10 10 14 18 10 10 18 16 9 12 22 26 28 33 37 41 42 42 41
27 27 26 25 24 24 24 23 23 22 22 20 19 19 20 21 20 20 19 20 20 13 10 13 16 19 16 12 10 9 10 9 6 7 6 9 10 7 16 34 35 35 35 32 32 32 32 32 31 21 9 8 9 11 13 7 6 13 15 10 7 11 13 13 15 18 20 19 12 10 9 14 18 9 6 16 16 13 18 24 28 32 35 38 40 41 42 42
28 27 27 26 25 25 25 25 24 23 22 21 20 20 20 21 21 20 19 19 20 15 12 14 18 22 20 13 5 3 6 5 4 3 2 2 5 5 14 31 36 36 37 34 33 33 32 30 33 23 7 11 10 8 15 10 5 10 14 13 14 18 18 16 17 19 18 16 16 13 8 12 18 11 5 13 20 19 23 28 31 34 37 39 39 39 41 41
28 28 28 27 27 26 26 26 25 24 22 22 21 21 21 21 21 20 19 20 21 17 15 17 19 23 23 13 6 5 5 6 4 4 5 6 4 3 14 31 35 36 38 36 34 33 31 28 32 23 4 8 11 6 12 13 10 10 9 10 15 17 18 18 17 19 14 10 18 17 6 7 14 11 8 15 25 25 28 32 33 36 37 38 38 38 39 40
28 28 28 28 27 27 28 27 26 24 23 23 21 21 22 22 21 21 21 20 20 17 16 16 19 25 24 13 11 6 6 8 9 10 12 12 7 2 14 32 34 35 37 36 36 33 31 26 29 25 7 5 9 4 8 13 15 15 10 6 9 8 11 14 13 16 11 6 16 15 2 3 10 12 13 20 29 29 31 33 34 35 36 37 38 37 37 39
30 29 28 28 28 28 28 27 26 25 24 23 22 22 23 22 22 21 21 19 18 16 16 17 23 27 18 10 9 7 7 10 9 9 12 12 7 2 14 32 35 34 35 34 35 34 31 26 29 29 13 6 7 3 3 6 10 13 8 5 6 5 7 10 9 12 10 6 16 16 1 5 9 12 15 24 31 31 30 32 33 34 34 36 37 36 37 38
31 30 29 29 29 28 28 27 26 25 24 23 23 23 23 23 22 21 20 17 15 15 17 22 23 19 11 7 8 9 5 2 3 7 8 7 3 3 11 29 35 34 34 31 29 31 30 23 26 27 15 9 5 3 4 3 2 4 4 3 3 2 5 5 5 9 6 6 20 18 4 7 7 10 18 27 34 33 29 30 32 33 34 36 37 37 37 38
33 32 31 29 28 28 28 28 26 26 24 24 24 23 23 23 21 20 16 12 13 17 19 19 16 12 11 9 9 10 7 4 6 8 7 8 1 5 10 24 33 34 33 26 19 24 28 21 20 20 12 10 7 5 4 3 2 0 3 3 2 4 5 5 3 9 7 6 19 16 4 5 5 8 21 29 34 34 30 29 31 33 34 35 37 37 37 38
34 34 33 30 28 27 27 27 26 25 24 25 24 23 23 21 19 16 11 11 15 16 13 12 15 12 7 8 10 13 11 8 12 10 5 7 3 6 8 17 27 32 31 22 9 12 25 21 15 15 9 6 4 1 1 3 4 2 3 3 2 5 6 5 4 9 11 6 11 13 4 2 3 10 23 28 33 33 28 28 31 33 34 36 37 37 36 36
35 35 34 30 28 27 27 26 24 24 25 26 25 23 21 18 16 10 7 15 16 10 9 13 19 9 2 13 16 18 22 17 14 9 6 6 4 8 10 14 20 28 27 20 8 5 19 20 9 8 7 4 3 4 2 4 5 2 2 3 3 5 4 3 4 6 11 7 7 11 8 4 3 11 23 28 32 30 26 28 31 32 34 35 36 36 37 37
35 35 34 31 28 27 26 24 23 24 25 26 26 22 15 14 13 3 7 21 16 7 8 15 19 5 2 20 21 22 30 21 12 8 5 4 5 11 14 13 16 24 21 14 9 7 14 15 7 3 3 4 4 6 6 6 6 4 4 3 3 4 4 4 3 3 7 8 9 10 11 9 3 9 21 28 32 29 27 30 32 33 33 34 35 36 37 39
35 35 35 32 28 27 25 22 21 23 23 24 25 18 10 14 10 1 12 22 12 6 4 10 14 2 5 21 24 26 27 16 9 5 3 2 5 12 14 12 14 21 16 7 7 11 12 7 6 6 6 10 10 10 8 3 4 7 6 4 4 4 5 5 4 3 6 6 7 10 12 11 5 8 16 24 31 29 26 27 29 30 32 33 35 36 38 40
35 35 35 32 27 25 23 20 21 21 20 22 25 17 12 20 9 1 21 21 9 10 7 7 9 3 10 21 23 27 20 9 7 2 2 2 6 14 14 12 14 15 12 7 5 11 13 5 6 12 12 12 10 8 7 4 2 3 3 3 4 5 5 5 3 4 5 5 7 10 12 13 10 10 14 22 27 22 20 22 25 28 31 33 35 36 39 41
35 35 35 32 26 23 20 18 20 19 18 20 24 21 17 20 9 6 22 16 11 16 8 6 6 5 17 20 20 27 18 9 12 10 5 1 5 12 15 13 11 7 7 9 7 8 11 7 12 16 10 7 6 7 8 7 8 4 2 3 4 5 5 5 3 3 4 5 6 8 10 12 10 10 13 19 19 17 21 24 25 29 31 33 36 38 39 39
34 34 35 32 25 21 17 16 18 16 15 18 23 24 20 20 13 10 14 9 14 16 5 8 5 6 22 20 16 25 16 7 12 17 12 4 2 9 13 10 7 5 6 9 7 5 7 10 16 12 6 6 6 7 9 9 10 8 4 3 4 3 3 6 5 3 3 4 4 6 8 11 10 9 11 17 19 23 30 32 32 34 33 33 36 37 37 36
34 34 34 32 25 18 15 14 17 14 14 18 23 25 21 20 16 12 10 7 11 11 3 9 6 8 23 19 17 23 13 4 8 16 19 10 2 8 11 8 6 5 7 8 8 7 6 10 12 8 7 7 6 6 9 8 7 7 6 5 5 3 3 4 4 2 3 5 4 4 5 7 7 6 8 18 25 26 31 35 35 37 38 40 41 40 38 38
33 33 33 32 23 16 13 13 16 15 16 20 23 24 22 21 17 12 10 4 5 7 1 9 9 11 23 19 17 20 9 4 7 15 20 15 7 4 6 8 8 5 7 10 10 10 7 7 7 11 8 8 8 7 7 7 5 6 8 8 6 5 5 3 3 3 2 4 3 3 2 5 5 7 7 14 20 18 22 27 27 31 37 39 37 36 38 40
33 32 32 31 22 14 11 12 17 17 16 19 21 23 22 22 17 10 7 1 2 5 1 7 8 12 22 18 18 18 7 5 9 15 18 15 10 7 4 7 10 6 7 10 8 9 10 7 9 14 12 10 10 8 7 7 4 5 9 11 9 7 5 2 4 4 3 4 3 3 2 6 4 10 10 9 12 13 16 18 22 29 32 30 31 35 38 40
32 31 31 28 19 13 11 13 18 17 16 18 20 22 21 21 15 6 2 3 3 4 2 7 5 11 21 18 23 18 2 6 12 14 16 13 9 4 3 3 6 6 7 8 4 5 7 7 9 11 13 13 10 9 7 9 5 6 8 9 9 7 4 2 1 2 2 3 5 1 3 5 4 6 10 10 13 16 15 15 22 29 29 29 33 37 39 39
31 31 30 24 15 12 12 13 17 17 18 19 21 22 21 20 10 3 1 3 3 2 2 7 4 12 19 16 23 12 2 12 14 13 17 13 10 1 6 3 2 4 5 7 3 3 6 8 9 9 10 12 10 10 9 10 8 7 4 8 7 7 6 6 3 3 3 3 6 2 2 3 4 5 7 10 14 15 15 15 19 25 29 32 36 37 40 42
30 30 26 18 11 12 12 13 16 17 19 21 20 20 21 16 3 3 3 1 3 1 2 6 4 13 18 14 21 13 3 13 9 11 20 13 10 2 7 3 3 4 3 8 5 3 8 11 11 9 8 8 10 12 12 13 9 5 6 9 8 8 8 7 5 5 3 2 7 4 2 3 5 5 3 8 12 12 15 18 17 22 30 34 36 38 40 43
30 28 21 13 9 10 11 13 17 17 20 20 19 20 18 8 2 4 4 1 1 3 3 7 6 13 17 11 17 16 10 11 7 14 20 14 9 2 7 1 2 5 7 7 6 4 6 10 14 12 8 7 8 9 10 13 10 4 5 5 5 6 6 6 6 4 3 4 9 7 4 3 6 5 2 5 9 12 14 16 15 23 33 36 37 39 41 42
29 26 18 11 10 11 11 13 15 17 20 19 19 19 9 2 5 4 2 2 1 3 3 8 7 10 15 7 8 13 9 9 13 18 17 16 16 8 5 4 5 1 5 4 5 6 5 8 15 12 9 7 7 7 9 14 12 5 4 2 0 1 3 4 4 3 4 8 10 9 8 6 6 5 4 5 8 12 13 12 13 19 28 34 36 38 40 40
26 23 16 11 11 12 13 16 17 18 20 19 21 16 1 4 4 3 1 1 2 2 2 5 6 7 11 6 5 10 6 7 15 16 12 13 19 19 10 5 7 4 2 4 4 5 6 7 7 7 12 11 7 6 7 11 11 6 5 4 2 2 2 2 1 3 7 9 7 8 8 8 8 7 5 7 9 13 13 14 15 17 24 33 37 39 41 42
23 21 15 10 10 11 15 20 21 21 20 21 24 13 4 2 2 2 2 1 1 1 2 2 4 5 6 5 6 9 5 5 11 10 7 6 8 12 9 4 5 1 4 3 3 3 5 7 4 3 13 15 8 5 5 6 8 7 5 5 5 3 1 3 3 3 7 7 4 6 7 7 9 8 8 10 10 12 14 17 19 21 27 35 38 40 42 43
22 19 14 9 9 10 12 16 20 21 20 23 22 9 4 2 1 2 1 1 1 1 1 1 3 4 5 4 5 7 5 4 10 9 5 5 4 6 7 7 7 1 3 1 2 3 3 5 6 6 8 12 12 8 5 5 6 8 7 6 6 4 4 6 4 3 4 4 4 5 6 4 5 5 11 14 13 14 18 23 26 28 32 37 41 43 43 42
21 17 15 10 8 10 12 13 17 19 20 22 17 4 4 1 2 1 1 2 1 1 1 1 2 4 6 4 3 5 4 3 9 9 5 4 3 2 4 9 10 5 0 1 2 1 2 4 7 7 2 4 10 10 8 6 6 8 8 6 6 5 5 5 3 4 4 4 5 4 5 5 4 5 10 14 16 20 24 27 29 31 34 37 38 38 39 40
20 15 14 10 9 11 13 14 15 17 20 19 10 4 3 1 2 0 1 3 1 2 2 2 3 4 5 4 2 5 4 2 7 7 4 4 4 3 3 6 10 8 2 0 2 1 2 5 4 3 9 6 4 7 8 8 5 7 7 7 8 5 4 2 4 5 3 2 4 4 4 4 4 5 6 7 12 17 22 25 26 27 30 30 29 31 35 38
20 12 10 9 10 14 17 20 18 15 16 12 6 3 1 2 2 1 1 1 0 1 1 4 4 3 3 3 3 6 5 2 5 5 3 3 4 4 4 4 8 9 5 1 1 2 1 6 6 12 12 5 5 7 6 9 6 4 6 9 6 5 6 4 5 2 2 4 5 3 4 3 2 6 5 4 7 11 15 16 18 24 27 26 28 33 37 39
21 12 7 10 16 18 20 23 20 13 8 5 4 1 2 2 1 2 2 3 1 2 3 2 2 2 2 2 2 5 5 2 4 4 2 2 3 4 3 4 8 8 6 3 1 0 1 5 8 7 7 6 13 14 9 9 8 5 5 8 5 5 5 5 4 2 3 6 5 2 5 4 4 6 4 4 6 10 12 11 12 18 22 24 29 35 39 42
22 10 5 15 23 21 19 19 12 5 1 4 2 0 1 2 4 5 6 5 1 3 4 2 0 1 1 1 2 4 4 2 3 3 3 2 2 3 2 2 7 9 10 7 1 1 1 3 6 2 3 9 14 9 6 7 10 8 5 7 7 4 6 6 5 5 5 5 4 3 4 4 6 6 4 7 10 11 12 10 10 12 16 22 29 34 39 43
20 7 6 21 26 19 15 12 2 6 5 4 1 1 1 1 6 11 12 7 1 4 3 1 1 1 1 2 0 3 4 2 2 2 2 2 1 3 4 2 3 8 13 10 1 1 1 0 4 3 3 8 8 1 3 6 10 8 4 6 6 4 6 6 4 3 4 4 3 3 3 4 6 6 8 11 11 12 12 11 10 11 17 25 30 33 37 40
19 6 9 25 25 16 11 7 8 8 5 3 1 1 2 2 6 15 18 10 3 3 2 1 1 1 0 1 1 1 3 2 1 1 0 1 1 2 5 4 3 7 12 10 2 2 1 1 3 5 6 4 2 2 2 1 2 4 4 5 6 4 2 4 3 2 4 4 3 3 4 5 5 5 9 12 12 12 13 12 11 13 21 29 32 33 36 39
17 5 12 27 24 16 9 5 8 7 3 2 2 2 4 4 5 13 19 15 6 4 3 2 2 2 1 2 1 1 2 2 1 1 1 1 1 1 4 6 5 6 8 6 3 1 0 1 1 4 5 3 5 5 1 2 2 2 2 3 6 5 3 4 5 3 3 4 4 3 5 6 5 4 8 11 11 11 13 14 12 15 24 30 33 35 37 40
15 4 12 25 24 18 9 6 6 5 2 3 4 3 4 6 5 9 16 15 9 6 4 2 1 1 1 1 1 1 1 1 1 1 1 1 1 1 4 9 8 7 5 3 3 4 2 1 1 4 4 7 15 16 10 8 6 4 4 3 3 2 4 5 6 4 3 4 3 3 5 6 5 5 8 9 9 10 15 16 13 17 27 31 34 37 38 40
14 5 11 23 24 16 7 6 5 4 2 5 6 4 4 5 5 6 10 11 8 5 4 2 1 1 1 0 1 1 0 1 1 1 0 1 2 1 3 7 8 7 4 2 3 6 4 1 0 4 4 7 13 11 5 3 1 1 2 3 4 4 2 4 5 4 4 4 4 4 7 6 4 4 5 7 6 6 12 17 17 19 26 30 34 37 37 40
13 7 10 21 23 13 6 4 4 2 4 7 5 6 6 5 6 7 6 7 7 6 5 3 2 2 1 0 1 1 1 1 1 2 1 1 2 0 1 4 7 5 3 3 3 5 4 1 1 2 2 4 6 2 2 4 4 2 3 5 4 6 10 8 2 3 4 7 8 7 9 7 3 2 2 5 6 4 6 15 19 19 22 26 31 34 37 39
11 5 7 16 22 20 12 6 3 1 4 6 3 5 6 5 7 9 6 5 7 6 4 2 2 2 2 2 1 1 1 1 2 2 0 1 2 2 2 2 5 5 5 7 7 6 3 2 1 3 3 4 4 3 2 2 5 4 6 8 8 8 9 7 2 1 5 7 8 7 8 6 2 0 2 5 5 5 6 9 15 19 23 24 25 31 35 37
6 3 5 9 17 20 15 11 11 5 2 5 3 3 5 4 6 10 8 5 7 7 5 4 2 1 2 3 2 2 2 2 2 1 1 2 2 3 5 3 4 7 8 8 9 6 2 2 3 3 4 5 3 1 1 3 5 7 10 14 12 8 6 3 2 4 3 4 6 6 7 9 7 5 6 7 6 6 7 7 9 17 23 24 24 29 34 38
4 2 3 4 8 11 9 11 14 7 4 4 2 2 5 4 4 7 7 4 7 10 6 3 3 4 3 4 2 2 3 2 2 3 4 4 3 3 4 4 4 7 6 7 9 5 2 2 4 6 6 7 6 6 6 6 8 9 12 15 16 13 9 4 6 6 2 2 6 6 6 11 12 9 9 10 9 8 7 8 11 17 22 26 28 28 32 39
3 1 2 3 3 4 3 7 11 8 7 5 1 1 5 4 3 5 4 3 6 7 3 2 3 5 4 5 2 2 3 2 2 3 3 2 2 2 2 3 4 4 2 5 7 3 1 2 4 5 6 8 7 7 8 9 9 10 12 14 15 14 12 9 10 10 6 5 6 4 7 13 15 11 8 8 9 10 11 14 18 21 24 29 30 29 32 39
4 2 1 2 1 1 3 7 9 7 6 6 2 2 4 4 3 3 3 4 5 3 2 1 5 8 8 5 2 2 2 2 4 4 2 3 3 2 2 3 3 1 1 2 4 1 1 3 4 5 6 7 7 8 9 10 9 9 11 13 13 13 14 14 13 13 12 10 10 10 11 14 11 7 4 3 5 8 12 15 17 20 24 27 28 30 35 39
4 2 3 2 1 3 4 6 5 3 4 4 1 1 3 3 4 5 4 4 4 2 2 3 7 9 9 6 3 3 4 4 5 5 4 3 3 2 2 3 2 1 1 0 2 2 2 3 3 3 3 5 7 7 7 7 7 9 11 11 10 11 12 11 11 11 9 9 11 13 13 11 5 4 5 4 5 5 6 8 12 16 20 22 25 30 35 37
5 5 5 3 2 3 3 3 2 2 3 2 1 3 4 4 4 6 6 5 5 3 3 5 9 8 7 7 4 6 8 7 9 12 11 10 9 7 6 4 4 3 2 2 1 1 1 3 3 2 1 4 4 3 4 6 7 9 9 8 7 8 8 6 4 3 3 5 6 8 9 7 6 8 7 5 9 8 6 9 15 19 17 17 25 29 32 35
7 7 5 2 1 2 2 2 2 1 2 2 4 6 5 5 6 6 5 4 4 6 6 7 9 7 4 5 6 9 16 17 19 22 22 21 20 18 16 13 10 7 4 3 2 2 2 2 3 1 2 4 3 3 7 7 5 6 5 3 4 5 8 6 4 6 4 2 3 5 6 6 9 9 5 5 8 7 7 11 15 20 20 15 23 26 30 36
Wind_Direction
6 4 1 359 357 354 354 351 350 350 350 350 349 348 345 342 340 338 338 339 339 334 326 319 313 307 301 295 290 291 289 280 274 266 261 265 259 238 226 208 200 198 191 187 186 182 174 170 171 171 176 178 186 198 196 205 209 205 217 221 243 234 226 213 185 194 158 149 168 173 170 152 141 152 139 133 129 144 155 153 157 162 164 167 164 163 164 163
4 2 359 356 355 352 351 349 348 348 348 349 348 346 343 342 340 338 336 336 342 343 333 322 314 308 303 298 292 294 294 291 280 267 263 266 248 218 209 198 192 199 195 188 188 185 179 171 168 170 172 172 184 190 190 205 208 203 198 223 229 219 226 246 252 249 171 156 164 173 177 167 163 161 150 139 132 150 152 138 145 131 135 154 158 163 164 164
2 360 357 355 353 351 349 347 346 346 347 348 347 345 342 341 340 338 336 337 345 348 339 328 317 309 304 301 297 298 298 299 288 274 276 255 230 202 198 193 187 197 201 198 195 193 191 180 170 169 168 170 182 182 188 201 202 209 214 239 238 238 262 283 273 263 278 157 155 162 177 177 169 165 159 145 143 166 166 151 147 136 141 152 158 163 164 165
0 358 356 354 351 350 348 346 345 345 346 347 346 343 339 340 339 338 338 339 347 347 341 334 323 314 307 305 300 301 307 305 292 277 332 240 222 203 196 189 188 194 197 203 198 195 195 183 174 169 166 170 185 184 197 201 186 185 204 221 237 240 252 275 278 273 287 160 157 156 167 178 173 171 164 146 140 199 199 179 172 159 155 158 161 165 166 168
360 358 356 354 351 349 347 346 346 346 346 346 344 341 337 338 337 336 339 342 344 342 337 333 328 321 310 308 301 303 321 320 314 105 88 117 186 201 195 188 191 192 191 197 193 190 191 181 172 165 165 166 177 189 216 209 197 187 226 238 251 278 233 274 299 302 290 159 152 150 163 171 167 174 170 162 165 211 203 190 181 172 165 164 166 166 168 171
0 358 357 356 352 348 347 346 346 347 347 345 342 338 335 334 335 334 337 341 342 339 337 332 329 325 316 311 301 298 291 220 66 351 248 167 148 189 193 190 191 190 188 192 189 187 185 176 168 163 166 165 178 191 211 207 209 228 245 245 247 254 254 277 303 312 305 161 164 166 173 163 157 181 183 183 191 210 205 190 180 176 172 169 168 168 170 174
1 359 358 357 354 349 347 347 347 348 348 345 340 337 334 334 335 332 332 339 341 342 344 342 340 334 323 312 301 294 265 249 314 298 253 229 232 196 192 191 191 189 186 187 186 184 181 173 169 166 164 171 192 198 196 200 213 238 256 248 247 247 249 260 276 293 295 239 211 186 169 167 172 187 188 196 202 199 198 186 179 175 173 171 170 171 174 177
1 360 359 357 355 350 348 349 348 348 348 345 339 337 336 336 337 332 329 334 340 344 352 359 1 351 336 316 301 296 275 264 304 299 264 242 242 234 195 190 191 190 186 188 188 184 180 174 173 170 167 192 186 194 196 189 210 232 244 247 251 247 250 260 264 270 270 262 246 191 176 192 191 178 182 203 199 179 177 176 175 172 171 173 172 174 176 178
1 0 359 357 355 352 348 349 349 348 347 343 340 340 339 339 339 335 327 330 336 331 335 356 3 358 347 321 304 298 285 265 274 292 282 248 238 251 204 193 192 190 187 190 191 187 180 175 179 174 172 196 176 187 197 190 207 221 234 248 266 264 267 272 261 257 255 251 236 192 198 207 194 179 207 209 191 175 173 169 171 171 171 173 175 176 177 180
0 1 359 356 355 353 349 348 349 348 344 341 341 342 340 340 340 335 329 329 331 317 306 329 344 350 344 324 302 280 278 238 237 286 321 279 239 245 210 199 196 191 188 188 189 190 188 186 186 177 168 196 192 194 193 200 227 221 234 248 260 266 271 270 265 263 254 242 220 198 210 207 188 185 231 207 186 176 168 166 170 172 173 175 176 178 179 182
360 1 1 357 354 353 349 347 349 348 343 340 341 342 339 339 338 334 331 328 328 316 298 310 326 336 337 317 238 226 269 220 216 304 346 356 321 258 206 202 200 194 189 188 191 196 199 197 186 175 168 198 196 211 205 214 238 254 258 254 254 257 262 257 258 259 251 237 219 204 199 188 180 197 222 191 182 178 168 165 171 173 175 176 178 180 182 184
357 359 0 359 355 352 350 348 348 347 342 340 341 341 336 337 337 331 331 329 326 316 303 308 317 327 330 299 248 257 295 253 256 296 315 324 321 285 199 199 201 199 193 191 194 199 201 201 187 179 179 170 173 199 235 230 237 258 266 271 271 271 268 248 243 245 231 228 213 192 159 189 187 213 210 182 177 176 170 167 171 174 175 177 178 181 184 186
353 354 356 357 355 352 350 349 348 346 343 341 341 339 336 337 336 331 332 330 324 318 312 310 316 325 322 286 289 313 297 269 276 310 315 308 300 266 198 197 197 197 196 195 197 198 198 200 193 188 186 158 158 171 271 254 235 244 240 243 276 301 290 251 230 226 215 217 187 168 182 233 208 214 189 175 174 169 167 169 172 175 175 177 180 182 186 188
354 352 353 355 353 350 350 350 348 345 343 342 342 340 337 338 336 333 331 329 328 322 316 314 320 330 312 293 345 346 321 306 347 349 353 345 284 227 198 196 195 194 195 198 200 199 196 196 196 195 201 206 214 292 330 335 238 220 197 202 231 245 284 261 202 186 193 208 175 166 241 234 216 208 179 174 175 169 167 171 174 175 177 179 182 184 187 190
355 354 355 355 351 349 350 350 348 345 344 343 345 343 339 340 336 331 332 335 333 323 322 323 332 345 316 316 14 11 12 59 2 340 1 17 322 212 200 196 197 196 195 196 204 206 197 188 192 198 214 226 241 303 333 350 318 176 166 207 192 193 256 278 209 177 181 199 175 172 249 238 234 201 179 176 175 174 171 173 177 177 179 181 183 187 189 192
355 353 355 356 351 349 350 350 348 345 345 344 347 346 341 341 333 329 338 342 336 334 346 351 347 347 321 335 3 1 352 322 324 321 311 345 298 211 205 198 198 199 197 191 193 210 198 189 193 203 218 228 212 204 342 336 310 302 190 218 181 181 236 276 266 206 188 170 178 189 214 235 244 187 178 178 177 176 173 174 179 179 182 183 185 189 190 192
353 352 354 355 352 351 350 351 348 346 347 346 348 349 345 340 329 327 349 349 352 5 23 6 349 344 25 7 353 347 346 323 309 305 286 312 257 205 193 193 196 200 197 189 179 177 191 191 195 208 213 212 152 128 196 253 246 267 218 223 210 186 213 237 291 243 188 162 183 205 218 229 231 175 174 180 180 177 175 177 181 182 184 185 187 189 191 192
352 351 353 355 354 352 352 352 350 350 350 347 351 351 345 339 331 321 359 354 5 38 32 8 1 15 8 357 348 337 340 326 299 290 293 305 231 198 190 191 191 191 188 188 195 168 177 188 189 205 221 204 189 168 193 217 201 204 198 195 225 215 218 211 252 250 176 174 187 198 223 231 223 170 176 182 182 180 182 181 182 183 185 186 188 191 193 195
351 349 351 355 355 353 353 354 354 355 353 352 356 352 345 354 357 138 352 357 20 39 12 353 1 62 282 332 341 341 338 329 310 279 266 325 192 179 187 198 187 177 168 172 203 179 166 169 173 199 219 205 206 198 195 208 152 168 185 180 186 213 244 229 235 236 168 180 204 196 217 222 191 179 183 183 184 186 186 182 182 185 186 187 190 193 195 197
350 348 350 354 356 354 355 358 358 359 2 3 3 6 10 7 17 320 344 357 22 352 326 328 337 306 313 329 346 352 351 359 8 21 118 41 157 164 175 180 167 163 161 162 183 178 170 163 197 209 215 206 206 194 187 249 261 154 173 205 202 210 250 244 235 249 175 174 223 209 216 224 197 186 190 184 185 188 185 183 184 186 188 190 192 195 198 200
350 347 348 352 356 356 358 1 1 5 15 14 16 31 34 16 15 317 337 345 345 339 334 347 322 306 346 345 351 357 356 11 32 47 54 14 156 164 174 166 152 161 176 157 136 163 170 190 221 215 208 192 187 171 168 226 256 258 220 236 254 227 247 262 239 237 188 181 240 220 218 234 210 191 192 181 181 191 189 186 188 189 191 193 195 197 200 200
350 346 346 351 356 1 1 3 6 12 22 24 28 37 34 18 6 331 330 314 324 341 6 5 322 315 354 355 353 356 349 344 21 30 26 8 193 181 182 175 167 178 169 149 133 154 185 222 226 207 167 165 175 163 166 198 231 248 247 241 265 238 247 275 254 226 193 193 249 221 211 236 222 195 190 182 186 196 195 192 191 189 190 195 198 199 198 198
348 344 344 349 357 5 6 7 12 17 22 24 26 24 17 9 359 340 331 285 307 332 33 22 4 339 356 0 353 352 347 323 355 6 12 13 262 200 190 189 182 170 165 171 175 171 195 235 221 171 144 177 186 175 171 185 215 227 229 231 239 218 200 258 267 255 213 212 230 203 208 243 223 188 192 196 197 199 199 198 196 192 192 196 199 198 196 196
346 343 343 347 356 7 9 13 16 19 21 20 18 11 5 359 350 335 330 278 293 320 27 25 16 1 358 357 349 345 334 304 332 348 359 2 337 268 212 196 184 189 187 185 194 194 226 257 181 150 166 190 194 195 178 180 214 221 221 227 225 214 211 246 310 323 314 277 240 165 251 289 216 187 202 203 204 207 204 201 201 201 201 200 198 197 198 198
345 342 341 346 355 8 15 20 18 17 15 14 10 2 357 351 341 324 330 335 306 314 28 19 13 9 360 358 352 343 310 299 337 345 352 357 339 312 267 204 191 207 191 180 198 213 243 252 155 157 181 190 200 207 188 181 211 240 225 220 218 214 219 262 329 338 358 318 279 165 227 292 230 200 205 192 198 209 203 200 205 207 206 203 199 199 201 202
345 340 342 347 354 7 19 20 12 8 4 3 1 355 351 346 333 305 354 63 337 306 18 5 360 4 1 0 352 346 293 319 340 354 3 8 350 298 254 266 210 211 180 169 205 215 232 224 164 173 187 182 200 215 197 178 193 248 224 202 206 202 190 191 337 300 230 251 272 174 193 268 296 225 209 185 193 203 197 200 208 208 204 201 202 202 202 202
345 341 345 351 354 3 15 12 2 2 2 354 349 348 345 343 331 252 74 40 343 322 22 354 355 4 3 4 360 8 161 327 336 8 15 13 359 286 205 292 254 212 161 157 228 200 192 201 179 186 189 179 197 211 195 173 190 241 186 151 181 193 196 199 192 233 238 265 283 293 164 251 287 253 217 187 196 204 198 205 209 206 205 203 205 205 204 204
347 342 348 356 355 355 2 359 354 360 358 346 341 342 340 339 324 161 85 46 333 35 25 347 4 6 5 18 19 31 31 344 343 356 6 15 5 356 194 243 229 252 212 183 227 189 176 199 187 179 191 193 203 204 188 178 200 227 142 140 168 187 201 193 183 227 250 311 279 263 151 247 269 268 242 186 197 208 205 210 209 204 206 206 207 207 206 207
348 345 350 356 345 344 348 351 354 354 349 342 341 339 334 336 159 120 67 163 7 45 10 352 4 358 359 21 26 19 7 8 349 332 358 21 8 191 180 183 187 259 273 220 227 223 193 197 183 181 202 202 205 205 179 185 210 194 145 143 144 166 182 173 179 206 219 239 251 239 171 215 268 269 225 182 200 212 211 213 210 206 208 208 207 208 208 208
350 345 347 346 340 337 330 338 348 346 342 342 341 338 337 98 126 88 49 200 42 25 339 3 2 346 357 18 19 7 2 0 345 341 2 21 22 48 117 56 53 350 283 260 237 245 257 204 184 192 209 188 187 202 179 190 203 163 157 203 57 120 128 157 179 160 209 241 240 227 185 187 260 259 197 191 204 205 207 213 213 210 211 211 210 209 209 209
350 342 341 342 343 344 339 341 343 339 340 343 340 341 69 128 77 107 177 216 61 4 344 10 356 349 10 38 20 355 354 348 349 356 5 15 27 31 31 23 19 13 267 293 272 252 269 229 198 202 199 178 165 200 195 197 199 177 167 175 218 302 73 144 199 150 218 241 230 213 181 182 237 252 213 214 213 202 203 210 207 207 210 211 211 210 210 209
351 337 331 332 333 344 352 350 344 338 340 344 341 343 133 132 11 165 226 338 81 353 5 346 340 357 4 38 35 354 343 349 351 360 4 7 40 38 33 28 356 313 208 281 297 260 250 228 239 239 198 182 170 195 202 198 197 192 172 148 179 229 171 202 218 195 227 245 225 184 162 191 236 246 230 228 224 209 208 212 208 205 207 208 210 210 211 210
352 332 317 313 316 329 344 345 344 339 340 345 340 343 105 99 251 193 291 345 197 303 36 300 337 12 2 28 35 355 348 0 354 354 351 10 64 68 56 35 13 56 187 336 344 298 269 218 222 234 211 189 183 189 196 194 187 188 183 167 181 190 196 212 224 245 248 257 242 172 156 215 254 241 224 223 226 219 216 218 214 210 209 208 210 210 210 210
354 330 307 295 305 321 324 326 336 339 339 345 345 8 92 82 216 143 327 267 251 4 30 300 335 14 22 42 43 7 9 343 350 352 341 11 37 42 44 29 20 24 58 57 35 266 224 230 213 203 249 220 198 200 191 170 174 191 183 177 194 191 187 196 197 223 231 251 251 183 166 203 206 220 216 213 222 220 221 222 217 215 214 211 211 210 209 210
357 332 302 288 295 309 311 307 319 335 339 344 1 69 95 238 245 47 254 253 279 10 325 334 41 46 24 22 22 25 39 328 341 348 353 35 39 15 21 15 15 18 23 112 7 10 227 263 266 307 323 315 244 224 183 155 183 200 172 182 211 189 154 181 202 193 180 235 243 205 206 215 214 257 246 218 223 218 221 223 214 214 215 209 208 208 210 211
2 343 311 300 300 302 305 300 297 314 333 351 40 68 146 192 229 226 200 264 230 114 353 356 39 62 8 353 359 5 20 20 343 340 2 47 42 36 44 26 16 18 30 78 285 9 325 272 306 332 319 316 354 316 218 179 184 177 173 196 198 145 147 214 238 187 134 221 240 218 243 265 265 275 269 209 222 221 222 222 211 211 207 199 201 204 207 210
5 357 339 338 328 317 309 303 295 293 323 26 81 128 218 168 328 282 325 334 278 114 82 35 19 54 10 356 1 354 360 9 352 347 348 21 28 26 42 50 34 19 1 1 253 97 21 280 297 318 290 314 351 332 274 209 175 149 188 192 144 113 165 203 230 231 198 230 265 267 235 219 205 254 258 171 201 228 229 223 214 210 199 193 200 203 205 208
3 358 357 355 345 335 325 318 302 244 162 62 75 247 141 76 23 3 342 328 309 69 74 111 47 70 62 27 346 344 359 8 2 358 331 334 33 30 24 31 35 16 340 335 333 199 50 297 297 274 235 314 338 334 284 233 200 187 178 165 146 158 190 188 207 216 206 230 275 280 252 217 203 227 222 189 200 219 228 225 217 209 195 196 203 204 204 206
4 1 356 354 352 353 351 348 30 152 121 67 50 341 22 22 9 7 358 352 82 79 70 160 96 64 97 90 332 330 5 18 3 5 350 359 33 43 46 11 9 5 334 326 330 245 337 146 281 316 355 324 323 256 217 237 218 205 167 155 168 193 194 187 191 187 189 215 243 262 276 248 227 208 187 196 203 206 215 219 215 209 201 202 204 204 203 204
11 14 353 352 356 7 9 29 82 92 82 69 94 326 337 328 352 3 12 20 61 74 76 173 81 79 52 44 78 342 3 344 325 128 348 15 12 48 55 34 355 350 325 312 282 252 347 100 252 311 346 331 283 205 179 199 226 211 193 175 186 204 199 196 203 169 171 188 203 239 260 257 250 204 185 196 202 202 205 210 213 212 207 207 208 205 203 203
19 24 345 352 359 7 9 55 57 47 71 63 29 317 337 357 348 358 16 30 44 54 85 146 115 129 150 32 44 49 348 304 280 145 230 358 62 55 34 31 6 340 324 308 296 282 286 104 240 298 332 305 257 272 321 18 347 254 252 228 204 197 152 183 228 219 184 195 186 202 250 265 255 208 191 199 201 201 202 203 210 215 211 210 210 209 207 206
23 43 347 356 2 4 23 74 29 17 94 22 339 286 321 1 360 355 11 22 31 34 46 92 83 90 113 56 64 76 357 286 247 175 202 228 168 230 3 16 359 331 323 290 284 297 272 157 264 272 267 260 264 274 282 275 268 248 245 274 280 240 154 185 225 211 192 213 178 190 258 271 250 208 199 207 208 207 206 202 204 214 214 212 212 212 211 210
11 14 7 11 7 2 42 78 12 12 56 345 328 320 338 6 12 12 15 14 14 11 11 34 9 351 41 114 148 109 332 259 216 200 214 267 239 250 353 0 350 333 326 295 292 319 310 202 251 287 279 274 269 271 284 285 256 204 261 332 333 306 312 273 237 181 185 209 181 220 253 257 255 233 218 232 237 220 214 211 210 215 216 215 214 213 212 213
356 351 19 22 17 20 65 64 355 10 4 341 339 358 10 27 20 20 24 16 15 3 354 6 347 355 37 271 189 151 187 148 193 228 241 227 226 235 352 347 344 334 323 319 327 340 331 232 108 6 348 303 281 264 42 17 26 16 314 320 317 331 344 331 285 157 215 209 180 205 243 245 257 281 280 286 284 266 228 221 220 223 222 217 216 216 214 214
352 347 17 24 32 48 70 63 18 11 353 350 344 351 7 19 15 18 21 31 37 12 328 318 331 341 9 338 284 201 211 169 192 246 254 212 247 251 239 304 337 321 304 316 325 323 304 256 131 107 149 208 226 181 163 325 335 322 302 305 315 344 349 337 322 253 241 211 183 202 237 236 211 212 277 285 281 275 265 240 230 233 234 227 218 216 218 216
9 5 346 7 35 51 63 49 29 20 342 357 352 343 4 357 355 12 18 31 29 2 293 248 294 6 9 348 328 275 272 209 197 291 255 249 270 236 218 238 316 307 297 325 347 340 280 242 222 194 194 219 235 216 209 265 292 298 302 305 306 313 320 318 268 251 228 194 204 219 238 243 231 214 236 250 241 241 258 259 243 238 240 240 230 220 220 219
44 42 348 351 21 35 43 32 23 12 317 336 329 308 360 2 338 2 21 22 353 342 313 271 9 40 4 333 312 273 279 238 246 289 258 246 262 252 231 232 283 294 292 336 360 352 284 269 251 230 231 248 268 289 287 277 276 279 288 294 294 296 299 271 240 257 297 208 227 223 237 255 251 224 213 225 227 228 235 237 239 241 243 246 242 231 224 222
47 65 43 34 13 21 26 359 357 348 319 319 297 301 354 8 356 356 8 342 317 328 334 316 352 6 340 321 302 272 289 289 267 270 266 270 285 298 291 249 249 258 272 345 360 357 257 277 260 244 255 261 264 274 274 270 268 266 267 274 280 285 284 265 250 256 259 253 264 251 224 244 256 251 232 215 208 214 223 225 234 242 245 245 242 233 225 222
45 81 61 49 28 303 296 313 326 335 325 320 338 14 348 345 355 356 340 316 305 323 30 347 322 334 332 320 288 249 266 286 284 279 279 279 263 262 293 275 248 196 145 346 343 326 250 271 252 252 271 269 264 269 267 260 261 264 259 256 262 272 275 269 257 248 243 254 277 274 248 243 252 272 289 249 212 226 235 238 242 244 245 245 237 226 221 218
14 357 329 359 329 282 287 303 320 336 328 325 342 347 328 329 348 346 323 292 280 305 17 344 316 320 321 313 279 241 245 250 272 274 252 257 260 228 243 248 217 158 120 11 323 294 253 271 275 271 275 275 271 264 252 247 255 264 264 261 265 279 281 267 251 244 236 241 258 263 262 259 269 4 351 336 356 334 282 282 285 271 258 245 228 219 215 210
339 332 329 331 313 307 304 307 330 332 307 320 354 332 334 339 341 334 311 269 252 271 318 321 315 316 314 306 279 265 278 275 271 269 258 253 250 232 227 217 171 159 188 193 218 285 257 290 327 357 299 283 268 244 270 282 266 253 260 270 277 298 309 290 266 266 224 223 255 266 262 269 314 341 331 356 29 26 4 345 329 318 298 248 220 213 207 202
327 332 339 350 324 326 324 315 335 341 306 314 329 333 332 320 321 326 316 296 282 284 297 310 309 308 307 294 279 290 302 299 288 281 272 261 253 244 241 234 207 187 179 171 193 214 214 279 305 306 270 275 263 292 311 304 269 233 230 245 269 318 338 330 354 18 0 241 229 243 251 290 314 320 332 17 32 30 14 358 342 332 320 263 222 213 206 201
Height
1518 1517 1515 1513 1511 1510 1508 1506 1505 1503 1502 1500 1498 1497 1495 1493 1492 1490 1489 1488 1488 1486 1484 1482 1482 1481 1480 1480 1478 1478 1477 1477 1476 1476 1473 1471 1473 1476 1478 1481 1482 1483 1484 1486 1488 1490 1492 1495 1497 1499 1501 1503 1505 1505 1507 1508 1508 1510 1510 1515 1516 1514 1510 1499 1496 1497 1495 1496 1496 1496 1496 1498 1502 1503 1504 1506 1508 1508 1510 1512 1512 1514 1514 1515 1516 1518 1521 1524
1518 1517 1515 1513 1511 1509 1507 1505 1504 1502 1501 1499 1497 1496 1494 1492 1491 1489 1487 1486 1486 1485 1484 1482 1480 1479 1479 1478 1477 1476 1475 1475 1474 1471 1470 1470 1472 1473 1475 1478 1480 1481 1482 1483 1485 1487 1489 1492 1495 1498 1500 1503 1504 1506 1507 1507 1507 1508 1509 1514 1513 1507 1500 1493 1493 1492 1492 1494 1494 1495 1496 1498 1500 1501 1503 1506 1508 1509 1511 1512 1513 1514 1515 1517 1518 1520 1522 1524
1518 1517 1515 1513 1511 1509 1507 1505 1503 1502 1500 1498 1497 1495 1493 1491 1490 1488 1486 1485 1485 1484 1483 1481 1479 1478 1478 1477 1476 1475 1474 1473 1470 1467 1467 1468 1469 1471 1473 1475 1477 1478 1480 1482 1484 1486 1487 1490 1494 1497 1500 1503 1504 1505 1506 1506 1506 1506 1509 1513 1507 1498 1494 1491 1491 1491 1491 1492 1492 1495 1497 1498 1499 1500 1502 1504 1508 1509 1509 1511 1511 1512 1514 1516 1518 1520 1523 1525
1518 1517 1515 1513 1511 1509 1507 1505 1503 1501 1499 1498 1496 1494 1492 1490 1489 1487 1486 1484 1484 1483 1482 1481 1479 1477 1476 1476 1475 1475 1474 1472 1467 1465 1466 1466 1467 1469 1471 1473 1474 1476 1480 1483 1485 1487 1489 1491 1493 1496 1499 1502 1504 1505 1505 1504 1505 1504 1505 1506 1499 1495 1495 1491 1489 1491 1491 1491 1492 1495 1496 1498 1499 1500 1501 1503 1508 1510 1507 1506 1507 1508 1510 1513 1517 1520 1522 1525
1518 1516 1514 1512 1510 1508 1506 1504 1502 1501 1499 1497 1495 1493 1491 1490 1488 1487 1485 1484 1483 1482 1481 1480 1478 1477 1475 1475 1474 1474 1474 1471 1465 1465 1466 1465 1466 1468 1469 1471 1473 1475 1478 1482 1484 1487 1490 1491 1493 1496 1499 1501 1503 1505 1503 1501 1503 1503 1499 1497 1494 1495 1496 1491 1489 1491 1491 1492 1493 1494 1496 1497 1498 1500 1500 1501 1505 1505 1501 1503 1505 1506 1508 1510 1515 1519 1522 1524
1518 1516 1514 1512 1509 1507 1505 1504 1502 1500 1498 1496 1495 1493 1491 1489 1487 1486 1485 1484 1482 1481 1480 1478 1477 1476 1475 1474 1473 1473 1474 1469 1465 1465 1465 1465 1466 1466 1468 1470 1471 1474 1477 1480 1482 1485 1488 1490 1492 1495 1498 1499 1501 1501 1500 1500 1502 1503 1497 1493 1493 1495 1494 1491 1490 1490 1491 1492 1493 1494 1495 1496 1497 1499 1499 1499 1499 1500 1500 1503 1505 1507 1510 1511 1514 1518 1521 1523
1517 1515 1513 1511 1509 1506 1504 1503 1501 1499 1498 1496 1494 1492 1490 1488 1487 1486 1484 1483 1482 1480 1479 1477 1476 1475 1474 1474 1472 1472 1472 1467 1464 1464 1464 1465 1465 1466 1467 1468 1470 1473 1475 1478 1480 1483 1486 1489 1490 1493 1496 1499 1499 1498 1499 1499 1501 1502 1498 1493 1493 1494 1493 1492 1491 1491 1492 1492 1492 1493 1494 1495 1496 1497 1498 1497 1498 1500 1501 1503 1506 1508 1511 1513 1515 1517 1520 1522
1516 1514 1512 1510 1508 1506 1503 1502 1500 1498 1496 1495 1493 1491 1489 1487 1486 1485 1483 1482 1481 1479 1478 1476 1475 1475 1474 1473 1472 1471 1470 1466 1464 1464 1463 1464 1465 1465 1466 1467 1469 1471 1473 1476 1477 1480 1483 1486 1489 1492 1495 1496 1496 1497 1498 1499 1501 1500 1495 1492 1493 1493 1492 1492 1493 1492 1491 1492 1492 1493 1493 1493 1493 1495 1496 1495 1498 1500 1500 1503 1506 1509 1512 1514 1516 1517 1520 1523
1515 1513 1511 1509 1507 1505 1502 1500 1499 1497 1495 1493 1492 1490 1488 1487 1486 1484 1483 1481 1480 1479 1477 1476 1474 1474 1473 1473 1472 1471 1466 1463 1463 1463 1463 1463 1464 1465 1465 1465 1467 1470 1472 1476 1478 1480 1482 1484 1487 1489 1493 1494 1495 1496 1497 1500 1500 1495 1492 1492 1493 1493 1492 1493 1492 1491 1490 1491 1492 1493 1492 1492 1493 1496 1496 1494 1499 1501 1501 1503 1505 1508 1511 1514 1516 1518 1519 1522
1515 1512 1510 1508 1506 1503 1501 1499 1498 1496 1494 1492 1491 1490 1488 1486 1484 1483 1481 1480 1479 1478 1476 1475 1474 1473 1473 1472 1473 1471 1464 1462 1463 1463 1462 1463 1463 1463 1464 1465 1466 1469 1471 1475 1477 1479 1480 1482 1485 1489 1492 1493 1494 1494 1495 1497 1495 1491 1492 1494 1493 1492 1492 1492 1490 1489 1489 1489 1490 1492 1492 1491 1493 1497 1497 1494 1497 1499 1500 1503 1505 1507 1510 1512 1515 1517 1519 1521
1514 1512 1510 1507 1505 1502 1500 1498 1496 1495 1492 1491 1489 1488 1486 1485 1483 1481 1480 1478 1477 1476 1474 1473 1473 1472 1471 1470 1471 1469 1463 1462 1463 1462 1463 1462 1462 1463 1463 1465 1466 1468 1470 1473 1476 1478 1480 1482 1485 1490 1491 1491 1492 1494 1493 1492 1492 1491 1493 1494 1491 1491 1491 1490 1488 1487 1488 1488 1487 1489 1491 1492 1494 1495 1493 1492 1495 1497 1499 1502 1504 1506 1508 1511 1514 1517 1520 1521
1513 1511 1509 1506 1504 1501 1499 1497 1495 1493 1491 1489 1488 1487 1485 1483 1482 1480 1478 1477 1475 1474 1473 1472 1471 1471 1469 1468 1467 1465 1462 1462 1462 1462 1463 1462 1462 1462 1463 1465 1467 1468 1470 1472 1475 1477 1480 1483 1486 1488 1489 1489 1491 1494 1492 1491 1492 1492 1493 1495 1492 1490 1490 1487 1486 1486 1486 1486 1484 1488 1496 1497 1494 1491 1489 1490 1494 1495 1498 1500 1503 1505 1507 1510 1513 1517 1519 1521
1513 1511 1508 1506 1503 1500 1498 1496 1494 1492 1489 1488 1487 1485 1483 1482 1480 1478 1476 1475 1474 1473 1472 1471 1470 1469 1467 1465 1463 1462 1462 1462 1462 1463 1462 1461 1462 1462 1463 1465 1467 1470 1472 1473 1475 1477 1480 1483 1484 1486 1487 1488 1489 1491 1491 1489 1491 1491 1492 1495 1494 1496 1492 1483 1482 1484 1484 1485 1482 1489 1503 1501 1491 1487 1488 1489 1492 1494 1497 1499 1502 1504 1506 1509 1512 1515 1518 1520
1512 1510 1508 1505 1502 1500 1497 1495 1493 1490 1488 1487 1485 1484 1481 1480 1478 1476 1475 1474 1474 1472 1471 1469 1468 1467 1466 1463 1461 1461 1461 1461 1462 1462 1461 1461 1462 1462 1463 1465 1468 1471 1473 1475 1477 1479 1481 1484 1485 1487 1488 1488 1487 1488 1489 1488 1490 1490 1492 1494 1496 1502 1495 1480 1479 1482 1484 1485 1480 1488 1502 1498 1488 1487 1487 1488 1489 1492 1495 1498 1500 1503 1505 1508 1511 1514 1516 1518
1511 1509 1507 1504 1502 1499 1496 1494 1492 1489 1487 1486 1484 1482 1480 1478 1476 1475 1474 1474 1473 1472 1469 1468 1466 1466 1464 1462 1461 1462 1461 1461 1461 1460 1460 1461 1462 1463 1463 1465 1468 1471 1473 1476 1478 1480 1482 1485 1486 1487 1487 1487 1488 1490 1491 1491 1490 1489 1495 1499 1497 1501 1495 1481 1479 1479 1482 1484 1480 1488 1499 1494 1487 1486 1485 1487 1488 1489 1493 1496 1499 1501 1503 1506 1509 1512 1514 1517
1511 1508 1506 1504 1501 1498 1496 1493 1490 1488 1486 1484 1483 1481 1478 1476 1475 1474 1474 1474 1472 1470 1468 1467 1465 1465 1464 1462 1462 1462 1461 1460 1459 1460 1460 1461 1461 1462 1464 1466 1468 1471 1473 1476 1478 1480 1482 1485 1486 1487 1487 1488 1489 1491 1494 1497 1495 1491 1494 1499 1497 1498 1495 1487 1480 1476 1477 1481 1482 1486 1493 1492 1486 1483 1484 1487 1487 1489 1491 1494 1497 1499 1501 1504 1507 1509 1513 1516
1510 1507 1505 1503 1500 1497 1495 1492 1490 1488 1485 1483 1482 1479 1477 1475 1474 1473 1473 1473 1471 1469 1468 1467 1465 1464 1463 1462 1462 1460 1460 1459 1458 1459 1460 1460 1460 1460 1463 1465 1467 1470 1473 1476 1479 1479 1481 1484 1486 1486 1486 1487 1488 1491 1500 1505 1502 1496 1494 1496 1494 1493 1494 1491 1484 1475 1474 1480 1484 1485 1487 1487 1483 1480 1483 1485 1486 1488 1490 1492 1495 1497 1500 1502 1505 1508 1510 1513
1510 1507 1504 1502 1500 1497 1494 1492 1490 1487 1485 1482 1480 1478 1476 1475 1473 1472 1473 1472 1470 1468 1468 1467 1465 1465 1464 1463 1463 1462 1459 1457 1457 1458 1459 1459 1459 1459 1461 1463 1465 1469 1473 1477 1478 1478 1481 1483 1484 1487 1487 1488 1487 1489 1498 1499 1494 1495 1496 1496 1494 1491 1490 1490 1485 1477 1475 1480 1484 1487 1487 1485 1482 1481 1481 1483 1485 1486 1487 1489 1492 1495 1498 1501 1503 1505 1508 1510
1509 1506 1503 1501 1499 1496 1494 1492 1489 1487 1485 1482 1480 1478 1476 1474 1472 1472 1473 1472 1470 1470 1471 1470 1469 1472 1472 1467 1464 1462 1458 1456 1456 1457 1458 1458 1458 1459 1461 1464 1465 1467 1472 1476 1476 1477 1479 1481 1485 1488 1484 1481 1479 1481 1487 1487 1484 1489 1491 1491 1492 1491 1489 1486 1482 1476 1476 1482 1485 1486 1487 1484 1483 1483 1481 1482 1483 1484 1486 1488 1491 1494 1496 1499 1501 1503 1505 1506
1509 1505 1502 1501 1498 1496 1494 1492 1490 1487 1485 1482 1479 1476 1474 1474 1473 1472 1472 1472 1472 1473 1474 1473 1473 1474 1473 1468 1464 1461 1457 1456 1456 1456 1457 1458 1458 1459 1462 1464 1464 1467 1469 1472 1475 1475 1477 1483 1483 1478 1473 1472 1475 1479 1483 1482 1482 1485 1487 1488 1488 1489 1487 1482 1480 1475 1473 1483 1485 1482 1483 1482 1481 1482 1478 1480 1482 1484 1487 1489 1490 1493 1495 1497 1498 1500 1501 1502
1508 1505 1502 1500 1498 1496 1494 1492 1490 1488 1486 1484 1480 1477 1479 1482 1481 1478 1475 1473 1473 1473 1473 1473 1473 1473 1471 1468 1465 1462 1458 1457 1456 1457 1458 1458 1458 1460 1461 1462 1464 1467 1468 1468 1473 1473 1476 1481 1474 1467 1468 1473 1476 1479 1481 1483 1483 1485 1488 1490 1489 1489 1486 1480 1478 1476 1472 1480 1483 1480 1483 1481 1478 1479 1477 1478 1482 1483 1483 1485 1487 1489 1492 1494 1495 1496 1498 1502
1508 1505 1501 1500 1498 1496 1494 1492 1491 1489 1488 1486 1483 1482 1485 1487 1487 1485 1481 1477 1473 1472 1473 1472 1472 1472 1470 1468 1466 1464 1462 1460 1458 1458 1458 1458 1458 1459 1460 1461 1463 1465 1466 1468 1472 1476 1479 1474 1464 1464 1471 1474 1476 1477 1480 1483 1483 1485 1488 1491 1492 1488 1485 1481 1476 1475 1474 1479 1481 1479 1482 1481 1475 1476 1476 1476 1477 1476 1477 1478 1480 1483 1487 1490 1492 1493 1496 1501
1508 1504 1501 1499 1497 1496 1494 1492 1491 1490 1488 1487 1485 1485 1487 1487 1487 1485 1484 1481 1475 1471 1472 1472 1472 1471 1469 1467 1465 1464 1464 1462 1460 1458 1458 1458 1458 1459 1459 1460 1462 1463 1465 1466 1468 1476 1477 1466 1460 1467 1472 1472 1476 1477 1478 1481 1483 1484 1486 1490 1492 1486 1485 1485 1479 1476 1475 1476 1477 1477 1480 1478 1474 1475 1476 1474 1472 1472 1474 1476 1477 1479 1481 1482 1484 1489 1493 1496
1507 1503 1500 1498 1497 1496 1494 1493 1491 1490 1489 1487 1487 1487 1487 1487 1486 1485 1483 1481 1478 1473 1472 1472 1472 1471 1470 1468 1466 1465 1464 1463 1462 1459 1459 1458 1457 1459 1458 1458 1461 1463 1464 1464 1465 1470 1468 1459 1459 1467 1470 1472 1476 1476 1477 1482 1484 1483 1482 1485 1487 1484 1484 1484 1481 1478 1475 1474 1473 1477 1484 1481 1475 1477 1476 1473 1473 1474 1476 1478 1480 1480 1479 1480 1484 1488 1491 1492
1506 1503 1500 1497 1496 1495 1494 1493 1491 1490 1489 1488 1488 1487 1487 1486 1484 1483 1482 1482 1479 1474 1472 1472 1472 1472 1471 1468 1467 1465 1463 1462 1462 1461 1459 1458 1458 1458 1457 1457 1459 1461 1462 1463 1466 1468 1464 1459 1459 1464 1467 1470 1474 1475 1476 1479 1484 1484 1478 1476 1480 1481 1482 1483 1482 1481 1484 1486 1476 1476 1493 1488 1474 1475 1474 1471 1474 1475 1475 1477 1478 1478 1479 1483 1486 1486 1488 1490
1505 1502 1499 1497 1495 1494 1493 1492 1491 1490 1488 1488 1488 1487 1486 1485 1483 1482 1482 1484 1482 1474 1472 1473 1473 1473 1470 1469 1466 1463 1464 1462 1460 1461 1459 1457 1457 1456 1457 1456 1455 1457 1459 1461 1465 1464 1459 1458 1460 1462 1464 1468 1472 1475 1473 1474 1484 1484 1472 1469 1475 1478 1482 1483 1483 1485 1491 1492 1477 1474 1491 1492 1478 1474 1470 1469 1472 1472 1472 1474 1473 1474 1477 1480 1481 1482 1484 1487
1505 1501 1499 1496 1495 1494 1493 1492 1491 1490 1488 1488 1487 1486 1485 1483 1482 1482 1482 1488 1486 1476 1474 1475 1474 1474 1472 1471 1466 1463 1469 1466 1459 1459 1458 1457 1456 1455 1457 1456 1454 1455 1454 1460 1466 1459 1453 1457 1460 1461 1463 1467 1470 1471 1468 1469 1480 1478 1465 1467 1474 1476 1481 1483 1483 1487 1487 1485 1479 1474 1482 1490 1485 1474 1467 1467 1470 1471 1472 1471 1469 1470 1473 1475 1476 1478 1480 1482
1504 1501 1498 1496 1495 1494 1493 1492 1491 1490 1489 1488 1486 1485 1483 1481 1482 1481 1484 1491 1486 1476 1477 1477 1475 1476 1474 1473 1469 1467 1472 1469 1463 1460 1456 1456 1455 1453 1455 1455 1455 1455 1451 1457 1465 1454 1449 1454 1456 1459 1464 1465 1462 1461 1462 1465 1472 1469 1462 1465 1470 1473 1477 1479 1482 1486 1483 1487 1490 1480 1478 1491 1488 1470 1464 1466 1469 1473 1471 1467 1466 1466 1468 1469 1471 1474 1476 1478
1504 1501 1498 1496 1495 1494 1493 1492 1491 1490 1489 1487 1486 1484 1482 1481 1481 1481 1488 1492 1483 1477 1480 1478 1476 1477 1475 1473 1472 1471 1472 1470 1468 1463 1457 1455 1453 1451 1453 1453 1453 1454 1451 1452 1457 1451 1446 1448 1451 1455 1459 1459 1456 1456 1458 1462 1465 1463 1461 1464 1466 1470 1473 1476 1482 1483 1485 1493 1494 1483 1479 1492 1489 1468 1465 1470 1469 1469 1466 1462 1461 1461 1462 1464 1466 1469 1472 1475
1503 1500 1498 1496 1495 1494 1493 1492 1491 1490 1488 1486 1485 1483 1480 1480 1481 1487 1494 1491 1483 1481 1481 1478 1478 1479 1477 1475 1474 1474 1472 1471 1469 1464 1458 1456 1453 1449 1451 1451 1451 1453 1452 1450 1451 1450 1445 1445 1447 1448 1449 1451 1453 1454 1455 1457 1459 1459 1463 1467 1469 1472 1473 1476 1478 1480 1491 1494 1485 1477 1475 1487 1490 1469 1461 1466 1460 1457 1458 1459 1459 1458 1460 1462 1463 1466 1469 1472
1503 1500 1498 1496 1494 1493 1492 1490 1489 1489 1487 1485 1483 1481 1480 1481 1483 1491 1494 1487 1484 1483 1480 1480 1480 1479 1478 1478 1478 1477 1474 1472 1469 1465 1462 1459 1457 1454 1454 1456 1456 1454 1453 1452 1451 1448 1447 1446 1445 1442 1443 1446 1450 1454 1454 1454 1456 1460 1464 1469 1476 1480 1479 1482 1483 1484 1496 1491 1475 1470 1470 1481 1487 1467 1454 1454 1447 1445 1451 1452 1453 1454 1455 1457 1459 1462 1464 1467
1503 1500 1497 1496 1494 1493 1492 1490 1489 1487 1486 1484 1482 1479 1481 1484 1488 1492 1490 1485 1486 1485 1482 1483 1482 1480 1481 1481 1482 1480 1477 1475 1472 1469 1470 1467 1467 1468 1468 1471 1470 1463 1459 1460 1457 1450 1447 1446 1443 1441 1440 1442 1449 1455 1456 1455 1456 1461 1466 1471 1484 1493 1492 1496 1496 1490 1491 1483 1468 1466 1470 1477 1473 1455 1446 1447 1442 1441 1441 1440 1443 1446 1448 1451 1454 1457 1459 1462
1502 1498 1496 1495 1494 1493 1492 1491 1489 1487 1485 1483 1480 1478 1481 1486 1490 1492 1489 1487 1487 1484 1482 1483 1482 1482 1482 1482 1485 1483 1479 1479 1476 1474 1473 1471 1473 1476 1476 1475 1473 1469 1466 1468 1467 1458 1451 1445 1442 1443 1441 1438 1443 1451 1457 1459 1458 1462 1466 1472 1485 1495 1500 1505 1502 1492 1488 1479 1464 1462 1471 1474 1463 1446 1439 1439 1437 1435 1434 1434 1438 1440 1442 1445 1447 1451 1455 1458
1500 1497 1494 1494 1493 1492 1491 1490 1489 1487 1485 1482 1480 1478 1483 1489 1491 1490 1489 1488 1486 1483 1482 1483 1482 1483 1483 1485 1487 1485 1483 1483 1479 1477 1476 1474 1477 1480 1479 1476 1474 1472 1471 1472 1474 1470 1465 1456 1445 1443 1444 1440 1439 1442 1447 1452 1455 1457 1458 1464 1474 1480 1489 1497 1496 1492 1488 1478 1466 1465 1471 1468 1456 1441 1430 1427 1428 1429 1430 1431 1433 1436 1438 1441 1445 1450 1454 1456
1498 1495 1493 1492 1492 1491 1490 1489 1488 1486 1485 1483 1481 1483 1488 1494 1493 1491 1490 1487 1485 1484 1484 1484 1484 1485 1486 1487 1487 1485 1486 1486 1482 1481 1479 1479 1482 1482 1482 1481 1477 1475 1475 1475 1477 1476 1475 1464 1447 1443 1446 1444 1441 1438 1437 1445 1454 1453 1450 1460 1467 1463 1467 1478 1481 1478 1478 1475 1468 1464 1463 1453 1442 1432 1424 1424 1425 1424 1426 1427 1429 1433 1435 1440 1446 1449 1452 1454
1497 1494 1492 1491 1491 1490 1488 1487 1486 1486 1486 1483 1485 1489 1492 1493 1493 1491 1488 1485 1485 1485 1486 1486 1486 1489 1491 1490 1489 1487 1486 1486 1485 1484 1482 1482 1484 1484 1484 1485 1481 1479 1479 1479 1480 1481 1479 1466 1451 1448 1446 1442 1444 1442 1436 1441 1448 1449 1452 1457 1454 1449 1455 1470 1477 1470 1472 1479 1468 1454 1453 1447 1439 1433 1422 1423 1427 1424 1424 1424 1425 1429 1432 1436 1440 1442 1446 1449
1495 1493 1491 1491 1490 1488 1486 1483 1482 1484 1485 1484 1488 1491 1491 1490 1490 1489 1487 1485 1486 1485 1487 1490 1490 1491 1494 1494 1493 1490 1487 1487 1487 1488 1486 1484 1487 1486 1485 1486 1484 1482 1481 1481 1480 1480 1480 1470 1456 1453 1449 1441 1443 1443 1436 1433 1436 1445 1452 1448 1444 1450 1453 1461 1475 1475 1476 1483 1468 1451 1452 1450 1446 1440 1426 1423 1429 1427 1423 1423 1423 1425 1429 1432 1434 1435 1439 1442
1494 1492 1491 1491 1490 1486 1483 1480 1479 1481 1483 1486 1489 1490 1489 1490 1490 1489 1487 1486 1486 1486 1488 1492 1492 1492 1494 1495 1495 1491 1489 1490 1490 1490 1489 1487 1489 1489 1487 1487 1486 1483 1481 1480 1479 1476 1479 1476 1460 1452 1452 1447 1441 1442 1439 1432 1429 1435 1439 1436 1442 1458 1459 1458 1470 1475 1478 1483 1471 1456 1453 1447 1442 1437 1427 1425 1427 1425 1423 1422 1423 1424 1426 1427 1428 1430 1434 1437
1495 1492 1492 1492 1489 1486 1482 1480 1479 1480 1482 1488 1493 1492 1491 1491 1489 1489 1488 1486 1486 1487 1490 1493 1493 1493 1493 1494 1495 1493 1491 1492 1492 1492 1491 1489 1490 1489 1487 1487 1487 1485 1482 1479 1479 1476 1476 1478 1466 1452 1452 1451 1445 1444 1443 1437 1431 1430 1433 1434 1437 1445 1450 1453 1457 1460 1468 1478 1472 1462 1456 1443 1432 1427 1422 1422 1421 1419 1420 1420 1420 1421 1421 1422 1423 1426 1429 1433
1495 1493 1492 1491 1488 1486 1484 1482 1481 1482 1486 1492 1496 1495 1493 1492 1491 1489 1487 1486 1486 1488 1490 1491 1492 1494 1494 1494 1495 1494 1493 1493 1492 1492 1492 1490 1490 1489 1488 1488 1487 1486 1482 1478 1478 1476 1474 1478 1473 1459 1454 1453 1447 1443 1442 1442 1441 1438 1438 1440 1438 1437 1439 1445 1447 1445 1453 1466 1468 1466 1459 1439 1422 1418 1415 1414 1414 1413 1414 1414 1415 1415 1415 1417 1418 1421 1424 1427
1495 1494 1494 1491 1488 1486 1484 1484 1486 1488 1492 1496 1497 1497 1495 1493 1492 1490 1488 1487 1487 1488 1489 1490 1491 1493 1493 1494 1495 1494 1494 1494 1491 1492 1492 1491 1491 1491 1488 1487 1487 1485 1484 1480 1478 1476 1475 1478 1478 1471 1465 1460 1451 1443 1443 1447 1450 1450 1448 1442 1437 1436 1440 1450 1456 1446 1442 1452 1454 1458 1458 1436 1414 1411 1410 1407 1407 1407 1406 1408 1409 1409 1410 1412 1414 1417 1420 1422
1496 1498 1496 1492 1489 1487 1484 1488 1493 1494 1496 1499 1499 1498 1496 1494 1493 1492 1490 1489 1489 1489 1489 1490 1492 1493 1493 1493 1494 1495 1495 1494 1492 1492 1492 1491 1491 1491 1488 1487 1487 1485 1484 1483 1479 1475 1474 1476 1479 1477 1471 1462 1450 1441 1443 1447 1448 1450 1450 1443 1437 1435 1436 1446 1455 1446 1441 1444 1442 1447 1452 1432 1410 1406 1406 1403 1403 1402 1401 1403 1403 1404 1405 1407 1409 1412 1415 1418
1498 1500 1498 1494 1491 1487 1487 1493 1498 1499 1499 1500 1498 1497 1496 1495 1495 1494 1493 1492 1491 1491 1491 1492 1492 1493 1493 1493 1493 1495 1495 1494 1493 1491 1491 1491 1489 1489 1487 1487 1486 1485 1484 1483 1480 1476 1474 1475 1478 1474 1464 1452 1443 1439 1441 1442 1444 1448 1450 1448 1447 1444 1440 1439 1439 1437 1440 1441 1440 1449 1450 1427 1407 1405 1404 1401 1401 1401 1401 1400 1400 1401 1401 1403 1405 1407 1411 1414
1500 1500 1499 1498 1494 1488 1491 1501 1505 1504 1503 1501 1499 1498 1497 1496 1496 1495 1496 1496 1495 1495 1494 1494 1493 1493 1493 1493 1493 1494 1495 1495 1493 1490 1490 1491 1489 1487 1487 1486 1486 1485 1484 1483 1481 1479 1479 1477 1477 1474 1466 1455 1444 1441 1444 1446 1450 1457 1458 1455 1452 1450 1449 1443 1432 1431 1436 1433 1433 1445 1443 1422 1408 1405 1403 1402 1403 1402 1402 1401 1400 1400 1399 1400 1402 1404 1407 1409
1501 1500 1500 1500 1498 1493 1498 1507 1508 1507 1506 1504 1502 1501 1499 1498 1497 1497 1497 1497 1497 1499 1499 1498 1495 1495 1495 1494 1493 1493 1493 1494 1493 1491 1490 1490 1488 1486 1485 1485 1485 1484 1483 1483 1480 1480 1482 1479 1477 1476 1471 1462 1454 1455 1463 1466 1466 1464 1460 1456 1455 1454 1455 1450 1441 1440 1438 1429 1426 1431 1427 1415 1408 1405 1403 1403 1404 1403 1402 1401 1401 1400 1399 1400 1402 1403 1404 1406
1504 1503 1502 1502 1501 1500 1504 1508 1508 1508 1509 1508 1506 1503 1502 1501 1499 1498 1498 1498 1498 1499 1500 1499 1496 1495 1496 1495 1495 1494 1493 1492 1492 1491 1490 1490 1488 1485 1484 1484 1484 1483 1482 1481 1480 1479 1480 1477 1476 1475 1471 1465 1463 1468 1474 1476 1474 1468 1462 1457 1456 1456 1456 1456 1456 1449 1436 1428 1426 1421 1415 1411 1408 1405 1404 1403 1403 1403 1402 1400 1400 1399 1398 1398 1400 1402 1403 1404
1508 1508 1508 1506 1504 1505 1507 1508 1509 1510 1510 1510 1509 1506 1504 1504 1502 1500 1499 1499 1500 1500 1499 1497 1496 1496 1498 1497 1497 1496 1493 1491 1492 1491 1489 1488 1487 1484 1484 1483 1483 1483 1482 1481 1480 1479 1480 1478 1475 1474 1473 1469 1469 1471 1471 1471 1472 1470 1466 1459 1454 1453 1454 1457 1457 1447 1434 1431 1428 1416 1411 1410 1404 1402 1404 1402 1401 1402 1401 1399 1398 1396 1396 1396 1397 1399 1401 1401
1509 1511 1511 1511 1510 1510 1510 1510 1510 1511 1510 1509 1508 1506 1505 1506 1505 1504 1502 1500 1501 1500 1500 1499 1498 1498 1499 1499 1499 1497 1494 1493 1493 1491 1488 1488 1486 1485 1484 1483 1483 1482 1481 1481 1480 1480 1482 1481 1475 1473 1473 1469 1468 1469 1468 1469 1469 1467 1465 1461 1454 1452 1452 1452 1449 1442 1437 1435 1426 1413 1410 1406 1396 1393 1398 1399 1398 1398 1397 1395 1394 1394 1393 1393 1393 1396 1397 1397
1510 1511 1511 1512 1512 1513 1513 1512 1511 1512 1510 1508 1507 1507 1507 1507 1506 1506 1504 1502 1501 1500 1500 1501 1500 1498 1498 1498 1498 1497 1495 1494 1494 1491 1489 1488 1487 1486 1486 1484 1483 1482 1482 1482 1481 1480 1482 1481 1475 1473 1473 1469 1467 1467 1466 1466 1466 1463 1460 1457 1452 1449 1446 1444 1441 1436 1435 1434 1425 1414 1409 1401 1392 1391 1394 1394 1394 1393 1391 1391 1391 1390 1389 1388 1388 1390 1390 1391
1512 1512 1512 1512 1512 1512 1512 1512 1512 1512 1511 1509 1508 1507 1507 1507 1507 1506 1504 1504 1504 1501 1500 1501 1500 1498 1497 1496 1497 1496 1493 1493 1493 1491 1489 1488 1487 1487 1486 1484 1482 1482 1483 1483 1481 1480 1483 1480 1473 1473 1474 1469 1464 1463 1461 1462 1463 1460 1455 1449 1447 1445 1440 1436 1433 1429 1429 1429 1423 1417 1412 1401 1392 1392 1393 1391 1390 1390 1390 1390 1389 1387 1386 1384 1383 1384 1383 1385
1512 1512 1512 1513 1512 1511 1511 1511 1511 1512 1511 1509 1509 1508 1507 1507 1507 1507 1504 1502 1502 1501 1500 1500 1500 1498 1496 1495 1495 1493 1490 1490 1490 1488 1486 1486 1485 1484 1483 1480 1480 1482 1483 1483 1481 1480 1482 1480 1475 1475 1476 1468 1461 1460 1460 1460 1459 1457 1452 1447 1445 1443 1438 1433 1429 1426 1425 1423 1416 1413 1411 1403 1395 1395 1394 1390 1388 1389 1389 1389 1387 1384 1383 1381 1379 1378 1378 1380
1512 1512 1512 1513 1512 1511 1511 1511 1511 1512 1511 1509 1508 1508 1507 1507 1506 1507 1505 1501 1499 1500 1500 1499 1498 1497 1496 1495 1492 1490 1489 1487 1486 1483 1481 1481 1480 1479 1478 1477 1477 1479 1481 1481 1482 1480 1481 1482 1479 1477 1476 1467 1461 1462 1462 1459 1455 1450 1446 1443 1441 1440 1438 1433 1429 1426 1425 1422 1417 1412 1409 1404 1401 1399 1396 1392 1390 1390 1390 1389 1387 1384 1381 1378 1376 1375 1376 1377